Back to catalog

STARLINK-30486

AliveCommunicationsVLEO
NORAD 58009·PAYLOAD·🇺🇸 United States

Launched Oct 5, 2023 from Cape Canaveral Space Force Station

Loading…

Next Passes (next 24 hours)

TLE

FreshSource: CelesTrak SupGP

Epoch: Sep 14, 2026, 22:34 UTC

1 58009C 23153U   26257.94076389  .00058502  00000+0  21189-2 0  2573
2 58009  43.0031  78.0568 0001428 265.8867  42.9697 15.27550282    11

Track STARLINK-30486 in real time with AllMySat

Download on the App Store